Temperature
13 15 15 16 16 16 16 15 15 14 14 13 12 12 12 11 11 11 10 10 10 9 9 9 8 8 8 8 7 7 7 7 6 6 6 6 6 6 7 7 8 8 8
13 14 15 15 15 15 15 14 14 14 13 13 12 12 12 11 11 11 11 10 10 10 9 9 9 8 8 8 8 7 7 7 6 5 4 4 6 6 5 6 6 7 7
13 13 14 14 14 14 14 14 13 13 13 12 12 12 12 11 11 11 10 10 10 10 9 9 9 8 8 8 8 7 6 6 6 5 4 3 5 5 5 4 4 5 5
12 13 13 13 14 13 13 13 13 13 12 12 12 11 11 10 10 10 10 9 9 9 9 8 8 8 7 7 7 7 6 6 6 5 4 4 3 2 3 4 4 4 4
12 12 13 13 13 13 12 12 12 12 12 11 11 11 10 10 9 9 9 8 8 8 8 8 7 7 7 7 7 6 6 6 5 5 4 3 3 2 1 2 3 4 3
11 12 12 12 12 12 12 12 11 11 11 11 10 10 9 9 8 8 8 8 7 7 7 7 7 6 6 6 6 6 6 6 5 5 5 4 2 2 2 2 2 3 3
11 11 11 11 11 11 11 11 11 11 10 10 9 9 8 8 8 7 7 7 7 7 6 6 6 6 6 6 6 5 5 5 5 4 4 3 3 2 2 1 1 2 2
11 11 11 11 11 11 11 11 10 10 10 9 9 8 8 7 7 7 6 6 6 6 6 6 6 6 5 5 5 5 5 4 4 4 3 3 2 2 1 0 -0 0 1
11 11 11 11 11 11 11 10 10 9 9 8 8 7 7 6 6 6 6 6 6 6 6 5 5 5 5 5 4 4 4 3 3 2 2 2 1 1 0 -0 -1 -1 -1
10 10 10 10 10 10 10 10 9 9 8 8 7 7 6 6 6 6 6 5 5 5 5 5 5 5 4 4 3 3 3 2 2 1 1 1 0 -0 -1 -1 -2 -2 -2
10 10 10 10 10 10 9 9 8 8 7 7 6 6 6 6 5 5 5 5 5 5 5 4 4 4 4 3 3 2 1 1 1 0 -0 -1 -1 -1 -2 -2 -2 -2 -3
10 10 10 9 9 9 9 8 8 7 7 6 6 5 5 5 5 5 5 5 4 4 4 4 3 3 3 2 2 1 1 -0 -1 -1 -1 -2 -2 -2 -3 -3 -3 -3 -3
9 9 9 9 9 9 8 7 7 6 6 5 5 5 5 5 5 4 4 4 4 4 3 3 3 2 2 2 1 0 -0 -1 -1 -2 -2 -2 -3 -3 -3 -3 -3 -3 -3
9 8 8 8 8 8 7 7 6 6 5 5 5 5 4 4 4 4 4 4 3 3 3 2 2 2 1 1 1 -0 -1 -1 -2 -2 -3 -3 -4 -4 -4 -4 -4 -4 -4
8 8 8 8 8 7 7 6 5 5 5 5 4 4 4 4 4 4 3 3 3 2 2 2 1 1 1 0 -0 -1 -2 -3 -3 -4 -4 -4 -4 -4 -4 -4 -4 -4 -4
8 8 8 7 7 6 6 5 5 4 4 4 4 4 4 3 3 3 3 2 2 2 1 1 0 -0 -1 -1 -2 -3 -4 -4 -4 -4 -4 -4 -4 -4 -4 -4 -4 -4 -3
8 8 7 7 6 6 5 5 4 4 4 4 4 3 3 3 3 2 2 1 1 0 -0 -1 -1 -2 -2 -2 -3 -4 -5 -5 -5 -5 -5 -5 -5 -5 -4 -4 -4 -4 -4
8 7 7 6 6 5 5 4 4 4 3 3 3 3 3 2 2 1 1 0 -1 -1 -2 -2 -2 -3 -3 -3 -4 -5 -5 -5 -5 -5 -5 -5 -5 -5 -4 -4 -4 -4 -4
7 6 6 5 5 4 4 4 4 3 3 3 3 2 2 1 1 0 -0 -1 -2 -2 -2 -3 -3 -4 -3 -4 -5 -5 -6 -5 -5 -5 -5 -5 -5 -4 -4 -4 -4 -4 -4
6 6 5 5 4 4 3 3 3 3 2 2 2 2 1 0 -0 -1 -1 -2 -2 -3 -3 -4 -4 -5 -4 -5 -6 -6 -6 -6 -5 -5 -5 -5 -4 -4 -4 -4 -4 -4 -4
5 5 5 4 4 3 3 3 3 2 2 2 1 1 0 -0 -1 -1 -2 -3 -3 -4 -4 -5 -5 -5 -5 -6 -6 -6 -6 -5 -5 -5 -5 -5 -4 -4 -4 -4 -4 -4 -4
5 4 4 4 4 3 3 2 2 2 1 1 0 0 -0 -1 -1 -2 -3 -3 -4 -4 -5 -5 -6 -6 -6 -6 -6 -6 -6 -5 -5 -5 -5 -5 -4 -4 -4 -4 -4 -4 -4
4 4 4 4 3 3 2 2 2 1 0 -0 -0 -1 -1 -2 -2 -3 -4 -4 -5 -5 -6 -6 -6 -6 -6 -6 -6 -6 -6 -6 -5 -5 -5 -5 -4 -4 -4 -4 -4 -4 -4
4 3 3 3 3 3 2 2 1 0 -0 -1 -1 -2 -2 -2 -3 -4 -5 -5 -6 -6 -6 -7 -7 -7 -7 -6 -6 -6 -6 -6 -5 -5 -5 -5 -5 -5 -5 -5 -5 -5 -5
3 3 3 2 2 2 2 1 1 -0 -1 -2 -2 -2 -3 -3 -4 -4 -5 -6 -6 -7 -7 -7 -7 -7 -7 -7 -6 -6 -6 -6 -5 -5 -5 -5 -5 -5 -5 -5 -5 -5 -5
3 3 2 2 2 1 1 1 -0 -1 -2 -2 -3 -3 -4 -4 -5 -5 -6 -6 -6 -7 -7 -7 -7 -7 -7 -7 -7 -6 -6 -6 -6 -6 -5 -6 -6 -6 -6 -6 -6 -6 -6
Wind_Speed
10 11 12 12 12 11 9 8 6 5 5 4 4 4 5 6 6 9 11 13 13 13 13 12 13 12 11 12 13 12 13 12 10 10 12 14 17 17 16 15 15 17 20
11 12 12 13 13 12 11 9 7 6 4 3 2 1 2 3 4 6 8 10 11 12 12 13 11 11 10 12 12 12 10 9 8 7 9 9 11 12 12 12 13 14 15
12 12 12 13 12 12 10 8 8 6 4 3 2 1 1 2 2 3 4 6 8 10 11 12 12 10 10 10 12 11 13 11 10 9 8 8 8 9 8 11 12 13 13
11 11 12 12 11 10 9 9 8 7 5 3 1 1 1 2 3 4 4 5 5 7 9 10 11 11 10 11 12 11 11 12 11 10 11 13 11 10 9 9 11 13 14
10 11 10 10 9 8 8 8 8 7 5 3 1 1 2 3 4 4 5 5 4 5 6 8 9 9 9 11 12 12 12 11 13 11 11 12 13 15 12 16 16 15 14
10 10 9 9 8 7 6 6 7 6 5 3 2 2 3 4 5 5 5 5 4 4 5 6 8 9 9 10 11 12 14 13 15 13 13 13 12 12 14 16 18 18 16
11 11 10 8 7 6 6 5 5 5 4 3 3 3 3 4 5 6 6 6 6 6 7 6 8 8 9 11 11 12 13 15 16 16 14 14 15 15 16 17 19 21 19
11 10 9 7 6 5 5 4 4 4 4 3 3 3 3 4 4 5 6 7 7 7 9 9 10 11 12 12 12 12 14 14 16 17 18 15 15 15 16 17 17 20 21
12 10 8 7 6 5 4 4 3 3 3 3 3 4 4 5 6 7 7 7 8 8 10 11 12 12 13 13 14 13 15 15 16 17 18 17 16 16 16 16 16 17 20
11 10 8 7 5 4 4 3 3 3 3 3 4 4 5 6 7 8 9 9 11 10 12 13 13 14 14 15 15 15 16 17 17 15 18 18 17 16 16 16 16 16 18
12 10 8 6 5 4 3 3 2 2 3 4 5 6 6 7 8 8 10 10 11 12 13 14 15 15 16 16 16 17 18 19 19 18 19 20 20 17 16 16 16 16 16
11 10 9 7 5 4 3 2 1 2 3 4 6 7 8 8 9 10 11 12 13 13 14 15 16 16 17 17 18 19 19 20 20 20 20 20 17 20 18 16 18 17 17
11 9 8 6 5 3 2 1 1 2 4 5 7 8 9 10 11 12 13 13 14 15 15 15 16 17 17 17 18 19 20 20 20 20 19 20 20 21 18 19 18 16 16
11 9 7 5 4 2 1 1 2 3 5 7 8 10 10 11 12 13 14 14 15 15 16 17 17 17 15 15 17 18 19 19 20 20 21 21 20 21 21 18 19 17 17
10 8 7 5 3 2 2 2 4 5 6 8 9 10 11 12 13 13 14 15 15 16 16 17 18 18 14 12 13 14 17 18 20 21 20 21 24 26 23 18 16 16 16
10 8 6 4 3 2 3 4 5 6 7 9 11 11 12 12 13 14 15 16 16 17 17 17 18 19 16 20 25 22 20 19 19 18 18 19 21 25 28 30 29 25 18
9 7 5 4 3 3 4 6 7 8 9 11 12 12 12 13 14 15 16 17 18 18 18 18 19 20 21 24 26 27 22 21 20 20 18 16 17 22 16 21 26 26 29
7 5 3 3 3 3 5 6 8 9 10 12 13 13 13 14 15 16 17 18 17 18 18 19 20 20 21 25 26 26 21 19 19 19 19 19 19 18 17 15 16 17 18
5 3 2 3 3 4 6 7 9 10 12 13 14 14 14 15 16 17 19 18 18 18 18 19 20 21 22 23 24 25 17 16 19 18 18 19 19 23 26 19 17 17 16
3 2 2 3 5 6 6 9 11 12 13 14 15 15 16 16 18 19 19 18 18 18 19 19 19 20 21 23 24 25 15 16 16 16 16 21 22 24 26 18 16 17 15
3 3 3 4 6 6 7 10 12 13 14 14 15 16 16 17 18 18 17 18 18 19 19 20 18 19 20 22 23 24 15 15 16 14 14 14 22 25 26 24 17 19 18
3 3 4 6 7 7 8 11 14 14 14 15 16 17 18 16 15 17 18 18 18 19 19 18 18 16 17 19 21 24 24 23 17 15 14 15 24 27 27 22 21 23 20
3 3 5 8 9 9 9 13 15 15 15 16 18 18 18 17 16 17 18 17 16 15 15 15 16 16 15 17 23 25 25 26 18 16 22 25 27 26 20 20 23 19 12
4 4 6 9 11 11 12 14 15 15 16 17 18 17 17 17 16 14 14 14 14 15 15 16 16 17 16 16 15 15 17 20 18 16 19 24 23 18 17 17 14 10 9
5 6 8 10 13 14 15 15 16 16 17 18 17 17 15 16 16 15 14 15 15 16 17 17 17 17 18 19 26 23 17 16 17 18 14 12 11 11 10 9 9 8 8
6 8 10 12 14 15 16 17 16 16 17 16 16 14 14 14 14 15 16 16 18 24 26 26 24 20 23 29 30 29 29 28 26 19 12 12 11 11 10 10 9 8 7
Wind_Direction
71 66 68 73 79 82 88 97 114 134 153 165 189 216 235 243 246 249 254 254 253 252 249 254 260 256 253 257 262 263 265 265 267 275 278 272 262 256 254 253 254 253 251
89 77 75 73 75 77 81 88 97 116 141 155 173 216 264 272 274 267 263 260 257 255 252 254 258 258 257 260 261 260 260 265 255 259 285 289 282 255 245 249 249 252 252
103 92 84 80 77 73 74 80 86 99 115 139 153 179 245 260 262 270 277 275 269 263 256 257 260 260 258 260 261 258 252 256 259 240 250 273 280 302 261 243 247 251 253
113 104 97 88 81 77 78 81 84 87 96 126 151 191 318 337 343 331 314 305 287 275 268 264 263 263 259 259 260 257 254 254 259 256 240 246 263 276 287 266 253 254 257
126 116 107 100 92 86 83 84 85 81 82 90 86 337 328 330 327 322 315 315 305 288 277 271 266 263 261 260 261 260 254 249 250 254 254 251 253 252 257 276 278 272 262
141 130 122 116 106 97 90 88 86 79 73 72 64 19 348 332 327 327 324 321 313 302 288 278 271 266 263 263 262 260 257 253 252 252 252 253 252 253 255 268 275 276 274
158 150 143 134 121 108 96 92 89 79 68 59 43 20 352 334 328 327 323 318 313 308 307 296 285 278 272 269 267 264 262 258 256 254 254 253 253 257 261 268 276 279 279
169 162 154 143 130 115 103 94 85 74 55 38 23 8 351 331 326 321 314 309 306 305 306 299 291 287 283 278 272 269 266 264 262 260 259 258 258 257 256 261 271 279 281
176 170 161 153 140 124 105 88 78 65 43 20 358 347 339 328 320 314 307 303 300 301 299 297 293 290 287 283 280 273 273 270 267 266 264 261 261 260 259 259 258 265 278
178 174 167 157 144 127 111 92 72 53 25 0 351 330 324 321 314 307 305 303 302 300 297 296 294 292 290 287 283 280 278 277 273 271 269 267 267 265 262 260 258 255 260
179 172 164 153 143 135 123 102 73 37 8 350 337 326 322 317 310 305 304 303 301 299 297 296 295 293 291 290 287 283 283 280 278 275 271 269 269 269 267 264 260 257 254
170 164 159 155 151 142 127 106 57 8 351 338 327 321 316 312 308 306 305 304 301 299 297 295 292 291 290 289 288 288 286 283 281 279 276 274 273 270 268 265 263 260 257
162 161 161 162 157 150 145 133 343 335 329 325 319 315 313 311 308 307 305 303 300 298 296 294 292 291 289 288 287 287 286 285 283 281 279 276 274 272 269 267 265 263 261
166 166 167 166 163 170 197 272 305 315 318 315 312 310 310 309 306 304 302 301 299 297 296 295 292 290 286 282 282 283 283 283 281 279 277 275 272 270 270 269 267 266 264
172 172 174 175 180 200 242 281 297 305 310 308 306 305 305 304 302 301 300 299 298 295 295 293 292 291 287 276 274 276 277 277 278 277 275 273 270 268 268 266 264 260 260
179 177 178 186 205 235 269 285 294 301 303 301 301 302 301 301 301 301 301 300 298 297 295 293 292 291 289 287 289 290 288 286 283 282 279 276 274 273 272 271 271 268 263
179 181 188 201 225 252 275 287 295 299 297 296 298 299 299 299 300 301 300 299 299 298 297 295 293 292 292 293 294 295 294 290 288 287 285 283 280 279 274 275 277 277 275
175 180 191 212 234 258 274 285 290 292 293 295 297 299 299 298 299 300 300 300 301 299 298 297 296 295 294 296 298 300 297 291 287 285 284 284 283 280 278 270 268 267 267
168 176 200 228 249 267 280 287 290 293 294 296 299 301 300 298 299 299 300 302 302 300 299 298 297 296 297 298 299 299 296 291 289 287 285 283 282 281 282 280 274 273 269
158 184 216 243 263 278 286 287 292 296 297 299 300 301 300 298 298 299 301 301 300 299 299 297 297 296 296 297 299 300 296 293 292 289 285 283 282 283 284 281 278 277 276
179 208 241 261 275 286 287 286 292 294 299 300 299 298 298 298 299 300 299 300 300 299 299 299 298 297 297 299 299 299 298 293 294 292 290 286 287 288 287 286 281 277 278
200 235 263 278 285 286 285 287 292 298 301 300 299 299 300 300 299 299 300 301 302 302 303 303 303 301 300 300 300 301 300 300 298 295 292 290 292 292 291 290 285 284 287
234 259 275 286 290 289 286 289 296 302 303 301 300 301 302 300 299 299 301 302 302 301 302 303 303 303 303 303 303 303 303 301 298 292 291 294 296 298 296 290 288 288 283
258 272 280 286 293 299 298 295 299 302 301 301 302 303 302 302 301 300 298 298 300 300 300 301 302 303 304 304 305 304 303 301 298 296 295 296 294 291 287 287 287 281 274
272 276 281 287 293 299 300 300 303 305 303 302 303 303 302 301 302 301 297 296 292 291 295 298 300 302 302 302 305 306 305 304 301 303 299 296 296 293 291 288 284 279 274
280 284 287 291 296 300 301 302 304 305 303 302 303 303 303 302 301 302 301 291 288 293 294 294 296 297 297 302 306 307 307 308 308 307 299 298 297 296 295 294 291 284 275
Height
1538 1537 1536 1536 1536 1536 1536 1537 1537 1538 1539 1539 1540 1541 1542 1542 1542 1542 1541 1541 1540 1539 1539 1538 1537 1536 1534 1533 1532 1530 1528 1526 1524 1520 1516 1512 1510 1506 1503 1502 1501 1500 1499
1540 1539 1539 1539 1538 1538 1538 1539 1539 1539 1540 1540 1541 1541 1541 1540 1540 1539 1539 1538 1537 1536 1534 1533 1532 1531 1529 1527 1526 1524 1522 1519 1518 1515 1511 1506 1503 1499 1495 1493 1492 1491 1489
1542 1541 1541 1541 1541 1540 1541 1541 1541 1541 1541 1541 1541 1541 1540 1540 1539 1538 1536 1535 1534 1532 1531 1529 1528 1526 1524 1522 1521 1518 1516 1513 1512 1509 1507 1504 1498 1494 1489 1485 1483 1481 1479
1542 1542 1542 1542 1542 1542 1543 1543 1543 1543 1542 1542 1541 1541 1540 1539 1538 1536 1534 1533 1531 1529 1527 1525 1524 1522 1519 1517 1515 1513 1510 1508 1505 1503 1500 1497 1494 1490 1482 1480 1477 1472 1470
1542 1542 1543 1543 1543 1544 1544 1544 1544 1543 1543 1542 1541 1540 1539 1537 1536 1534 1532 1530 1528 1526 1524 1522 1520 1517 1515 1512 1510 1507 1505 1501 1499 1496 1493 1490 1486 1482 1477 1469 1469 1467 1463
1542 1542 1543 1543 1544 1544 1544 1544 1544 1543 1542 1541 1540 1538 1537 1535 1533 1531 1529 1527 1525 1522 1520 1517 1515 1512 1510 1507 1504 1501 1498 1495 1492 1489 1485 1482 1479 1475 1471 1463 1459 1456 1454
1541 1542 1542 1543 1543 1544 1544 1543 1543 1542 1541 1540 1538 1536 1534 1532 1530 1528 1526 1523 1521 1519 1516 1513 1510 1507 1504 1501 1498 1494 1491 1488 1484 1481 1477 1473 1470 1467 1463 1458 1451 1446 1443
1539 1540 1541 1542 1542 1543 1543 1542 1541 1540 1539 1537 1536 1534 1532 1530 1527 1525 1523 1520 1517 1514 1511 1508 1505 1501 1498 1494 1490 1486 1483 1479 1475 1471 1468 1464 1460 1457 1453 1450 1445 1437 1431
1537 1538 1539 1540 1541 1541 1541 1540 1539 1538 1536 1535 1533 1531 1529 1527 1524 1522 1519 1516 1513 1509 1506 1502 1498 1495 1491 1487 1482 1477 1474 1470 1465 1462 1458 1454 1450 1447 1443 1440 1437 1433 1423
1534 1535 1537 1538 1538 1539 1538 1538 1537 1535 1534 1532 1530 1528 1526 1523 1520 1518 1515 1511 1508 1504 1500 1496 1491 1487 1483 1478 1473 1468 1464 1460 1455 1451 1447 1443 1440 1437 1433 1430 1427 1423 1418
1530 1532 1534 1535 1536 1536 1536 1535 1534 1532 1531 1529 1527 1525 1522 1519 1516 1513 1510 1506 1502 1497 1493 1488 1483 1479 1474 1470 1464 1459 1454 1449 1445 1441 1436 1432 1429 1425 1422 1419 1416 1412 1409
1527 1529 1531 1533 1533 1534 1533 1532 1531 1529 1528 1526 1524 1521 1518 1515 1512 1508 1504 1500 1495 1491 1486 1480 1475 1470 1465 1460 1455 1449 1444 1439 1434 1430 1425 1421 1418 1414 1411 1408 1404 1401 1399
1524 1527 1529 1530 1531 1531 1530 1529 1528 1526 1524 1522 1520 1517 1514 1511 1507 1503 1498 1493 1488 1483 1478 1472 1466 1461 1456 1450 1445 1439 1434 1428 1423 1419 1414 1410 1407 1402 1400 1397 1393 1390 1388
1522 1524 1526 1527 1528 1527 1527 1526 1524 1523 1521 1518 1516 1513 1509 1505 1501 1496 1491 1486 1481 1475 1470 1464 1458 1452 1446 1440 1435 1429 1422 1417 1411 1407 1402 1398 1395 1391 1388 1385 1382 1380 1377
1520 1522 1523 1524 1524 1524 1523 1522 1521 1519 1517 1514 1511 1508 1504 1500 1495 1490 1484 1479 1473 1467 1461 1454 1448 1442 1436 1430 1424 1417 1411 1405 1399 1395 1391 1387 1384 1380 1378 1375 1371 1369 1366
1517 1519 1520 1521 1521 1520 1520 1518 1517 1515 1512 1509 1506 1502 1498 1493 1488 1482 1477 1471 1465 1458 1452 1445 1438 1432 1426 1420 1414 1408 1401 1395 1390 1384 1380 1377 1373 1369 1367 1364 1362 1359 1356
1514 1516 1517 1517 1517 1517 1516 1514 1512 1510 1507 1504 1500 1496 1491 1486 1481 1475 1469 1462 1456 1449 1443 1436 1429 1422 1416 1410 1404 1398 1393 1386 1381 1376 1371 1367 1363 1360 1357 1353 1350 1348 1345
1512 1513 1514 1514 1514 1513 1512 1510 1508 1505 1502 1499 1494 1490 1484 1478 1473 1467 1461 1454 1448 1441 1434 1427 1420 1413 1406 1401 1395 1389 1383 1377 1372 1367 1363 1359 1354 1351 1348 1344 1340 1337 1334
1510 1510 1511 1511 1510 1509 1508 1506 1503 1500 1497 1492 1488 1483 1477 1471 1465 1459 1452 1446 1439 1432 1425 1418 1411 1403 1397 1392 1386 1381 1374 1369 1364 1359 1355 1351 1346 1343 1340 1336 1331 1327 1324
1507 1507 1507 1507 1506 1505 1503 1501 1498 1495 1491 1486 1481 1476 1470 1464 1457 1451 1444 1437 1430 1423 1415 1408 1402 1395 1388 1383 1378 1373 1368 1361 1356 1351 1347 1343 1339 1335 1331 1328 1323 1319 1315
1504 1504 1504 1504 1503 1501 1499 1496 1492 1488 1484 1479 1473 1468 1462 1456 1449 1442 1436 1429 1422 1414 1407 1400 1393 1387 1381 1375 1370 1366 1361 1355 1349 1344 1339 1334 1331 1327 1323 1320 1315 1311 1308
1501 1501 1501 1500 1499 1496 1493 1490 1486 1482 1477 1471 1465 1460 1454 1448 1441 1434 1428 1421 1414 1406 1399 1392 1385 1379 1374 1368 1363 1359 1354 1349 1343 1336 1331 1327 1323 1319 1314 1310 1306 1303 1300
1498 1498 1497 1496 1494 1491 1488 1483 1479 1474 1469 1463 1457 1452 1446 1440 1434 1427 1420 1413 1407 1400 1392 1385 1378 1371 1366 1361 1356 1351 1346 1340 1335 1329 1324 1319 1315 1310 1305 1301 1297 1294 1291
1495 1494 1493 1490 1488 1486 1482 1477 1472 1466 1461 1455 1449 1443 1437 1431 1425 1419 1413 1406 1400 1393 1386 1379 1372 1365 1359 1354 1348 1343 1338 1332 1327 1321 1316 1311 1306 1301 1297 1293 1289 1286 1284
1491 1489 1488 1485 1482 1478 1474 1470 1465 1459 1453 1447 1441 1435 1429 1423 1417 1411 1405 1399 1393 1388 1381 1373 1367 1359 1352 1347 1343 1337 1331 1325 1320 1314 1308 1303 1298 1294 1290 1286 1283 1280 1277
1486 1484 1482 1479 1475 1471 1467 1462 1457 1451 1445 1438 1433 1427 1421 1415 1409 1402 1395 1390 1385 1379 1373 1367 1361 1353 1347 1340 1335 1329 1324 1318 1313 1307 1301 1297 1293 1288 1284 1281 1277 1275 1272